KRFD

Chicago Rockford International Airport

Airport
ICAO code
KRFD
IATA Code
RFD
Summary
ICAO Region
NAM
ICAO Territory
Location

Rockford, Illinois

Serving
Chicago
Elevation
742 ft
Coordinates
42° 11' 48" N , 89° 6' 4" W
KCC
Airport CFIT
Altimeter Temperature Error Correction
Metar
KRFD 191054Z 29006KT 10SM CLR 03/M03 A3013 RMK AO2 SLP208 T00281028 $

Description

Chicago Rockford International Airport is a general aviation and commercial airport in Winnebago County, Illinois. It is located 3 nm south of Rockford and 68 nm northwest of Chicago.

Runways

Designator Length Width Surface Rops
1/19 2499 46 ASP Yes/Yes
7/25 3049 46 PEM Yes/Yes

Airport map

Aerial View

SKYbrary Partners:

Safety knowledge contributed by: